Le nostre stazioni meteo in Italia

Pubblicità
Il mio iltempo24.it
Torino Venaria, Italia (16060): Temperatura & dewpoint: 06.11.2019 06:00:00 - 12.11.2019 06:00:00 (CET)Torino Venaria, Italia (16060): velocità del vento: 06.11.2019 06:00:00 - 12.11.2019 06:00:00 (CET)Torino Venaria, Italia (16060): direzione del vento: 06.11.2019 06:00:00 - 12.11.2019 06:00:00 (CET)Torino Venaria, Italia (16060): reduced air pressure: 06.11.2019 06:00:00 - 12.11.2019 06:00:00 (CET)
Data & Tempo tt [°C] td [°C] ff [km/h] ff [kn] dd ppp [hPa]
12.11.2019 06:00:00 2,4 2,4 5 3 SSO 1005,5
12.11.2019 05:00:00 3,1 3,1 4 2 O 1004,7
12.11.2019 04:00:00 2,4 2,0 5 3 ONO 1006,0
12.11.2019 03:00:00 0,3 -1,0 0 0 N 1006,8
12.11.2019 02:00:00 2,0 0,8 4 2 ONO 1007,1
12.11.2019 01:00:00 4,2 3,8 2 1 ESE 1007,6
12.11.2019 00:00:00 5,1 4,8 0 0 N 1008,1
11.11.2019 23:00:00 5,1 4,8 2 1 NNO 1008,5
11.11.2019 22:00:00 5,1 4,7 2 1 NNE 1008,8
11.11.2019 21:00:00 5,4 5,0 4 2 ENE 1009,0
11.11.2019 20:00:00 5,6 4,9 2 1 ENE 1009,3
11.11.2019 19:00:00 5,9 4,7 2 1 ENE 1009,6
11.11.2019 18:00:00 6,4 4,5 0 0 N 1009,8
11.11.2019 17:00:00 7,0 4,1 2 1 S 1009,9
11.11.2019 16:00:00 7,5 3,9 4 2 SO 1009,8
11.11.2019 15:00:00 - - - - - -
11.11.2019 14:00:00 8,5 1,8 5 3 S 1010,4
11.11.2019 13:00:00 8,7 1,7 5 3 S 1011,5
11.11.2019 12:00:00 8,8 2,9 4 2 OSO 1012,6
11.11.2019 11:00:00 7,4 6,6 0 0 N 1013,2
11.11.2019 10:00:00 5,0 5,0 0 0 N 1014,0
11.11.2019 09:00:00 3,7 3,7 4 2 NO 1014,2
11.11.2019 08:00:00 2,8 2,8 0 0 N 1014,3
11.11.2019 07:00:00 2,5 2,5 4 2 ONO 1014,5
11.11.2019 06:00:00 1,9 1,8 4 2 SSE 1014,0
11.11.2019 05:00:00 1,1 0,7 5 3 ONO 1014,5
11.11.2019 04:00:00 0,0 -0,9 4 2 ONO 1015,0
11.11.2019 03:00:00 0,0 -0,9 4 2 NO 1014,8
11.11.2019 02:00:00 0,6 -0,6 0 0 N 1014,7
11.11.2019 01:00:00 0,7 -0,9 2 1 ONO 1014,7
11.11.2019 00:00:00 1,5 0,0 2 1 ONO 1014,6
10.11.2019 23:00:00 3,7 2,8 2 1 ONO 1013,6
10.11.2019 22:00:00 3,7 2,5 4 2 ONO 1013,2
10.11.2019 21:00:00 4,6 3,4 2 1 O 1012,4
10.11.2019 20:00:00 5,1 3,4 4 2 ONO 1011,7
10.11.2019 19:00:00 5,6 2,9 2 1 ONO 1011,1
10.11.2019 18:00:00 6,8 2,4 4 2 ONO 1010,2
10.11.2019 17:00:00 8,7 3,1 2 1 E 1009,4
10.11.2019 16:00:00 9,1 3,2 0 0 N 1008,7
10.11.2019 15:00:00 9,2 3,5 2 1 SE 1008,4
10.11.2019 14:00:00 9,1 3,9 2 1 ESE 1008,5
10.11.2019 13:00:00 8,8 3,8 4 2 ENE 1008,6
10.11.2019 12:00:00 8,2 4,5 4 2 NO 1008,7
10.11.2019 11:00:00 7,2 5,2 0 0 N 1008,8
10.11.2019 10:00:00 6,3 6,2 2 1 ONO 1008,7
10.11.2019 09:00:00 5,4 5,4 2 1 NO 1008,5
10.11.2019 08:00:00 4,8 4,7 2 1 NO 1008,0
10.11.2019 07:00:00 4,5 4,2 0 0 N 1007,7
10.11.2019 06:00:00 4,5 4,2 0 0 N 1007,7
10.11.2019 05:00:00 4,6 4,5 2 1 N 1007,6
10.11.2019 04:00:00 4,7 4,7 2 1 ESE 1007,5
10.11.2019 03:00:00 3,9 3,8 5 3 NO 1007,8
10.11.2019 02:00:00 3,8 3,7 4 2 NO 1008,1
10.11.2019 01:00:00 3,4 3,3 0 0 N 1008,2
10.11.2019 00:00:00 2,9 2,5 5 3 O 1008,2
09.11.2019 23:00:00 2,6 1,6 4 2 NO 1008,4
09.11.2019 22:00:00 2,2 0,7 0 0 N 1008,4
09.11.2019 21:00:00 2,6 0,6 4 2 ONO 1008,4
09.11.2019 20:00:00 2,8 -0,9 2 1 ONO 1008,2
09.11.2019 19:00:00 5,3 1,0 5 3 ONO 1007,8
09.11.2019 18:00:00 8,6 2,1 4 2 NO 1007,0
09.11.2019 17:00:00 10,9 2,6 0 0 N 1006,0
09.11.2019 16:00:00 12,6 2,4 4 2 S 1005,7
09.11.2019 15:00:00 12,1 2,4 5 3 E 1005,5
09.11.2019 14:00:00 12,1 3,2 5 3 ESE 1005,7
09.11.2019 13:00:00 11,4 4,1 2 1 SSO 1006,3
09.11.2019 12:00:00 9,3 5,4 5 3 SSO 1007,6
09.11.2019 11:00:00 7,5 6,4 9 5 SO 1007,9
09.11.2019 10:00:00 4,6 4,6 2 1 SO 1007,7
09.11.2019 09:00:00 1,0 0,7 4 2 NO 1007,9
09.11.2019 08:00:00 -2,2 -3,0 4 2 ONO 1008,0
09.11.2019 07:00:00 -1,9 -2,8 5 3 ONO 1007,7
09.11.2019 06:00:00 -0,1 -0,8 2 1 ONO 1006,7
09.11.2019 05:00:00 -1,0 -1,9 4 2 ONO 1006,0
09.11.2019 04:00:00 0,5 -0,2 4 2 OSO 1005,6
09.11.2019 03:00:00 1,0 0,1 0 0 N 1005,3
09.11.2019 02:00:00 2,4 1,4 4 2 ONO 1004,7
09.11.2019 01:00:00 4,8 4,7 0 0 N 1004,1
09.11.2019 00:00:00 4,1 4,0 8 4 SO 1004,3
08.11.2019 23:00:00 4,2 3,6 9 5 SSO 1004,2
08.11.2019 22:00:00 5,4 4,7 0 0 N 1003,9
08.11.2019 21:00:00 6,3 5,5 4 2 NO 1003,7
08.11.2019 20:00:00 7,2 6,4 2 1 SE 1003,1
08.11.2019 19:00:00 7,5 6,6 4 2 N 1002,6
08.11.2019 18:00:00 7,8 6,4 11 6 ENE 1002,2
08.11.2019 17:00:00 8,7 7,0 5 3 NNE 1001,1
08.11.2019 16:00:00 8,6 6,2 8 4 NE 1000,6
08.11.2019 15:00:00 9,3 6,7 8 4 NE 1000,2
08.11.2019 14:00:00 9,2 6,8 9 5 NE 999,6
08.11.2019 13:00:00 9,3 6,3 8 4 E 999,5
08.11.2019 12:00:00 9,7 8,8 5 3 SSE 999,3
08.11.2019 11:00:00 8,0 8,0 4 2 SSO 999,3
08.11.2019 10:00:00 7,3 7,3 0 0 N 999,4
08.11.2019 09:00:00 6,6 6,6 5 3 OSO 1000,3
08.11.2019 08:00:00 6,4 6,4 2 1 ENE 999,6
08.11.2019 07:00:00 6,2 6,2 0 0 N 999,4
08.11.2019 06:00:00 6,1 6,1 0 0 N 1000,1
08.11.2019 05:00:00 6,2 6,2 0 0 N 1000,5
08.11.2019 04:00:00 6,1 6,1 2 1 SO 1000,9
08.11.2019 03:00:00 6,0 6,0 4 2 OSO 1001,6
08.11.2019 02:00:00 6,2 5,9 2 1 ONO 1002,3
08.11.2019 01:00:00 6,6 6,0 0 0 N 1002,5
08.11.2019 00:00:00 6,7 6,3 2 1 NO 1003,2
07.11.2019 23:00:00 6,7 6,3 4 2 N 1003,7
07.11.2019 22:00:00 6,8 6,5 4 2 NNE 1004,2
07.11.2019 21:00:00 7,0 7,0 4 2 NNE 1004,4
07.11.2019 20:00:00 7,2 7,2 2 1 N 1005,0
07.11.2019 19:00:00 7,2 7,2 4 2 NE 1005,1
07.11.2019 18:00:00 7,4 7,1 4 2 NNE 1005,0
07.11.2019 17:00:00 8,0 7,1 2 1 N 1005,3
07.11.2019 16:00:00 8,2 7,0 4 2 NE 1005,6
07.11.2019 15:00:00 8,3 6,9 4 2 E 1005,6
07.11.2019 14:00:00 8,3 7,2 5 3 NE 1005,6
07.11.2019 13:00:00 8,3 7,5 5 3 NE 1005,9
07.11.2019 12:00:00 7,7 7,4 4 2 NNE 1006,3
07.11.2019 11:00:00 7,0 7,0 2 1 N 1006,6
07.11.2019 10:00:00 6,1 6,1 8 4 ONO 1006,4
07.11.2019 09:00:00 5,7 5,7 0 0 N 1006,1
07.11.2019 08:00:00 5,0 5,0 0 0 N 1005,8
07.11.2019 07:00:00 5,3 5,3 5 3 ONO 1005,3
07.11.2019 06:00:00 4,9 4,9 0 0 N 1005,3
07.11.2019 05:00:00 4,5 4,5 2 1 NO 1005,0
07.11.2019 04:00:00 3,8 3,8 5 3 ONO 1004,9
07.11.2019 03:00:00 3,7 3,7 4 2 OSO 1005,2
07.11.2019 02:00:00 3,4 3,4 5 3 ONO 1005,0
07.11.2019 01:00:00 5,1 5,1 2 1 ONO 1004,9
07.11.2019 00:00:00 3,8 3,7 2 1 SSO 1005,0
06.11.2019 23:00:00 5,5 5,5 2 1 O 1004,7
06.11.2019 22:00:00 5,6 5,5 4 2 O 1004,5
06.11.2019 21:00:00 5,8 5,4 4 2 N 1004,0
06.11.2019 20:00:00 5,5 4,1 2 1 NO 1003,7
06.11.2019 19:00:00 7,2 6,0 2 1 NO 1003,2
06.11.2019 18:00:00 8,3 6,9 4 2 NNO 1002,4
06.11.2019 17:00:00 8,7 6,5 0 0 N 1002,0
06.11.2019 16:00:00 10,0 7,2 4 2 NE 1001,7
06.11.2019 15:00:00 10,9 7,5 5 3 ENE 1001,5
06.11.2019 14:00:00 11,6 7,1 11 6 ENE 1001,3
06.11.2019 13:00:00 11,4 8,2 11 6 ENE 1001,3
06.11.2019 12:00:00 11,8 9,5 5 3 E 1001,2
06.11.2019 11:00:00 10,4 10,4 4 2 NE 1001,1
06.11.2019 10:00:00 7,6 7,6 0 0 N 1001,0
06.11.2019 09:00:00 4,2 4,2 4 2 NO 1000,8
06.11.2019 08:00:00 2,7 2,7 2 1 SSO 1000,2
06.11.2019 07:00:00 3,4 3,4 5 3 O 999,6
06.11.2019 06:00:00 4,1 4,1 4 2 O 999,5

tt = Temperatura
td = dewpoint
ff = velocità del vento
dd = direzione del vento
ppp = reduced air pressure

Stazioni seguenti

WeatherPro
AMSI
MeteoEarth